Temperature
3 4 3 3 3 3 3 3 3 4 4 3 3 3 2 2 2 1 1 1 0 0 0 0 -0 -0 -0 -0 -0 -0 0 0 0 0 0 1 1 1 1 1 1 1 1 1
2 3 3 3 3 3 3 3 3 3 3 3 3 2 2 1 1 1 0 0 -0 -0 -0 -0 -0 -0 -0 -0 -0 -0 -0 -0 -0 0 0 0 0 0 0 0 1 1 1 1
2 3 2 2 2 2 2 2 2 2 2 2 1 1 1 1 0 -0 -0 -1 -1 -1 -1 -1 -0 -0 -0 -0 -1 -1 -1 -0 -0 -0 -0 -0 -0 -0 -0 -0 -0 -0 0 0
1 2 2 2 2 2 2 1 1 1 1 1 0 0 0 -0 -0 -1 -1 -1 -1 -1 -1 -1 -1 -1 -1 -1 -1 -1 -1 -1 -1 -1 -1 -1 -1 -1 -1 -1 -1 -1 -1 -0
1 2 2 2 2 1 1 0 0 -0 -0 -0 -0 -0 -1 -1 -1 -1 -1 -2 -2 -1 -1 -1 -1 -1 -1 -1 -1 -1 -1 -2 -2 -1 -1 -1 -1 -1 -1 -1 -1 -1 -1 -1
1 2 2 2 0 1 0 -0 -0 -1 -1 -1 -1 -2 -2 -1 -2 -2 -2 -2 -2 -2 -2 -2 -2 -2 -2 -2 -2 -2 -2 -2 -2 -2 -2 -2 -2 -2 -2 -2 -2 -2 -2 -2
1 1 1 -0 -0 0 0 -0 -1 -1 -1 -2 -2 -2 -2 -2 -2 -2 -2 -2 -2 -2 -2 -2 -2 -2 -2 -2 -2 -2 -3 -3 -3 -3 -2 -2 -2 -2 -2 -3 -3 -3 -3 -3
0 1 1 -1 -1 -1 -1 -1 -1 -1 -2 -2 -2 -3 -3 -2 -2 -2 -3 -3 -2 -2 -2 -2 -2 -3 -3 -3 -3 -3 -3 -3 -3 -3 -3 -3 -3 -3 -3 -3 -3 -3 -4 -4
-0 0 -0 -1 -1 -1 -1 -1 -1 -2 -2 -2 -3 -3 -3 -3 -3 -3 -3 -3 -3 -3 -3 -3 -3 -3 -3 -3 -3 -3 -3 -3 -3 -3 -3 -3 -3 -3 -3 -4 -4 -4 -4 -4
-1 -1 -1 -1 -1 -1 -1 -2 -2 -2 -2 -2 -3 -3 -3 -3 -3 -3 -4 -3 -3 -3 -3 -3 -3 -3 -3 -3 -3 -4 -4 -4 -4 -4 -4 -4 -4 -4 -4 -4 -4 -5 -5 -5
-2 -2 -1 -1 -1 -1 -2 -2 -2 -2 -3 -3 -3 -3 -4 -4 -4 -4 -4 -4 -4 -4 -4 -4 -4 -4 -4 -4 -4 -4 -4 -4 -4 -4 -4 -4 -5 -5 -5 -5 -5 -5 -5 -5
-1 -1 -2 -2 -1 -1 -2 -2 -2 -3 -3 -3 -3 -4 -4 -4 -4 -4 -4 -4 -4 -4 -4 -4 -4 -4 -4 -4 -4 -4 -5 -5 -5 -5 -5 -5 -5 -5 -5 -5 -5 -6 -6 -6
-1 -1 -1 -1 -2 -2 -2 -3 -3 -3 -3 -3 -4 -4 -4 -4 -4 -4 -4 -4 -4 -4 -4 -5 -5 -5 -5 -5 -5 -5 -5 -5 -5 -6 -6 -6 -6 -6 -6 -6 -6 -6 -6 -6
-1 -1 -2 -2 -2 -3 -3 -3 -3 -3 -3 -4 -4 -4 -4 -5 -5 -5 -5 -5 -5 -5 -5 -5 -5 -5 -5 -5 -5 -5 -5 -6 -6 -6 -6 -6 -6 -6 -6 -6 -6 -6 -6 -6
-2 -2 -2 -2 -3 -3 -3 -3 -3 -4 -4 -4 -4 -5 -5 -5 -5 -5 -5 -5 -5 -5 -5 -5 -5 -5 -5 -5 -5 -6 -6 -6 -6 -6 -6 -6 -6 -6 -6 -6 -6 -6 -6 -6
-2 -3 -3 -3 -3 -4 -4 -4 -4 -4 -4 -4 -5 -5 -5 -5 -5 -5 -5 -5 -5 -5 -5 -5 -5 -5 -5 -6 -6 -6 -6 -6 -6 -6 -6 -6 -6 -6 -6 -6 -6 -6 -6 -6
-3 -3 -3 -4 -4 -4 -4 -4 -4 -4 -4 -5 -5 -5 -5 -5 -5 -5 -5 -6 -6 -5 -6 -6 -6 -6 -6 -6 -6 -6 -6 -6 -6 -6 -6 -6 -7 -7 -7 -7 -7 -7 -6 -6
-3 -3 -3 -3 -4 -4 -4 -4 -4 -4 -5 -5 -5 -5 -5 -6 -6 -6 -6 -6 -6 -6 -6 -6 -6 -6 -6 -6 -6 -6 -6 -6 -6 -7 -7 -7 -7 -7 -7 -7 -7 -7 -6 -6
-3 -3 -4 -4 -4 -4 -4 -4 -4 -5 -5 -5 -5 -5 -6 -6 -6 -6 -6 -6 -6 -6 -6 -6 -6 -6 -6 -6 -6 -6 -6 -6 -6 -7 -7 -7 -7 -7 -7 -7 -7 -7 -7 -7
-4 -4 -4 -4 -4 -4 -4 -4 -5 -5 -5 -5 -5 -6 -6 -6 -6 -6 -6 -6 -6 -6 -6 -6 -6 -6 -6 -6 -7 -7 -7 -7 -7 -7 -7 -7 -7 -7 -7 -7 -7 -7 -7 -7
-4 -4 -4 -4 -4 -5 -5 -5 -5 -5 -5 -6 -6 -6 -6 -6 -6 -6 -6 -6 -6 -6 -6 -6 -6 -6 -6 -6 -7 -7 -7 -7 -7 -7 -7 -7 -7 -7 -7 -7 -7 -7 -7 -7
-4 -4 -5 -5 -5 -5 -5 -5 -5 -5 -6 -6 -6 -6 -6 -6 -6 -6 -6 -6 -6 -7 -6 -6 -6 -6 -7 -7 -7 -7 -7 -7 -7 -7 -7 -7 -7 -7 -7 -7 -7 -7 -7 -7
-4 -5 -5 -5 -5 -5 -5 -5 -5 -6 -6 -6 -6 -6 -6 -6 -6 -6 -6 -6 -7 -7 -6 -6 -7 -7 -7 -7 -7 -7 -7 -7 -7 -7 -7 -7 -7 -7 -7 -7 -7 -7 -7 -7
-5 -5 -5 -5 -5 -5 -5 -5 -6 -6 -6 -6 -6 -6 -6 -6 -6 -7 -7 -7 -7 -7 -7 -7 -7 -7 -7 -7 -7 -7 -7 -7 -7 -7 -7 -7 -7 -7 -7 -7 -7 -7 -7 -7
-5 -5 -5 -5 -6 -6 -6 -6 -6 -6 -6 -6 -6 -7 -7 -7 -7 -7 -7 -7 -7 -7 -7 -7 -7 -7 -7 -7 -7 -7 -7 -7 -7 -8 -8 -8 -8 -8 -8 -8 -8 -8 -8 -7
-5 -6 -6 -6 -6 -6 -6 -6 -6 -6 -6 -6 -6 -7 -7 -7 -7 -7 -7 -7 -7 -7 -7 -7 -7 -7 -7 -7 -7 -7 -7 -7 -8 -8 -8 -8 -8 -8 -8 -8 -8 -8 -8 -8
-6 -6 -6 -6 -6 -6 -6 -6 -6 -6 -6 -6 -7 -7 -7 -7 -7 -7 -7 -7 -7 -7 -7 -7 -7 -7 -7 -7 -8 -8 -8 -8 -8 -8 -8 -8 -8 -8 -8 -8 -8 -8 -8 -8
Wind_Speed
5 5 3 5 5 5 6 6 5 5 5 5 3 3 3 3 4 4 4 4 4 4 4 4 5 5 5 5 5 4 4 3 3 3 3 3 3 2 2 1 1 0 0 1
4 4 3 5 6 6 7 6 7 7 8 5 4 3 3 4 4 4 5 5 5 5 5 5 5 5 4 4 4 4 3 4 4 3 3 3 3 2 2 1 1 1 1 1
2 1 3 6 5 6 5 4 4 6 5 3 4 5 4 4 4 4 5 6 6 6 5 5 5 5 5 4 4 3 3 3 3 3 3 3 3 3 2 2 2 2 2 2
2 1 5 3 1 2 3 3 2 2 3 3 3 5 3 3 3 4 5 6 6 6 5 5 5 5 5 5 4 3 3 3 3 3 3 3 3 3 3 2 2 2 2 2
2 3 5 2 0 1 2 3 1 2 4 4 4 4 2 4 4 4 4 5 5 5 5 5 5 5 4 4 4 4 4 4 3 3 3 3 3 2 2 2 2 2 2 2
3 3 4 2 1 1 1 2 1 1 3 3 4 2 3 5 6 5 5 4 5 5 5 5 5 5 5 4 4 4 4 4 3 3 2 2 2 2 2 1 1 1 2 2
5 4 4 1 1 1 2 4 1 1 2 2 2 3 5 6 5 5 5 5 5 4 4 4 5 5 5 4 4 4 4 3 3 3 3 3 2 2 2 2 2 2 2 2
3 4 5 1 2 3 3 1 1 1 1 2 3 4 4 5 5 5 5 5 5 4 4 5 5 4 5 5 5 4 3 3 3 3 3 3 3 3 2 2 2 2 3 3
4 4 1 3 3 2 1 1 1 1 1 2 3 4 4 5 5 5 4 5 4 4 4 4 4 4 4 5 5 4 3 3 3 3 3 3 2 3 3 2 2 2 2 3
3 4 3 2 2 0 0 1 1 1 1 2 3 3 4 4 4 4 4 4 4 4 4 4 4 4 4 5 5 4 4 3 3 3 3 3 3 3 2 2 2 2 2 3
4 4 3 2 2 2 1 1 1 1 1 2 2 3 3 4 4 4 4 3 3 3 3 3 4 4 4 4 4 4 4 3 3 3 2 3 3 3 2 2 2 2 2 2
5 4 3 3 1 0 1 1 1 1 2 2 2 3 3 3 3 4 4 3 3 3 3 3 3 4 4 4 4 4 3 3 3 2 2 2 2 3 4 4 5 5 4 3
4 2 2 2 1 1 1 1 1 1 2 2 2 2 3 3 3 3 4 4 3 3 3 3 3 4 4 4 4 3 3 3 3 2 2 2 2 2 3 4 5 5 6 6
2 1 2 2 2 1 1 1 1 1 1 1 2 2 2 3 3 4 4 4 4 3 3 3 3 3 4 4 3 3 3 3 3 2 2 2 2 2 2 2 3 3 5 6
3 2 3 2 0 0 1 1 1 1 2 2 2 2 2 3 3 4 4 4 3 3 3 3 3 4 4 3 3 3 3 2 2 2 2 2 2 2 2 2 2 3 3 4
2 1 2 2 2 1 1 1 1 2 2 3 3 3 2 2 3 3 4 3 3 3 3 3 3 4 4 3 3 3 2 3 3 2 2 2 2 2 1 2 2 2 3 3
3 3 3 3 3 2 2 2 2 2 2 2 3 3 2 2 3 3 3 3 2 3 3 2 3 4 3 3 2 2 2 3 3 2 2 1 1 2 2 2 2 2 2 3
4 4 4 4 4 3 3 2 2 2 2 2 2 2 2 2 3 3 3 3 3 3 3 2 3 3 2 2 2 2 2 2 2 2 1 1 2 1 1 1 2 2 3 3
3 3 3 3 3 3 2 2 2 1 1 1 1 2 2 3 3 3 3 2 2 3 3 3 4 3 2 3 3 2 1 2 2 2 1 2 2 2 1 1 2 2 2 2
1 2 2 1 1 2 2 1 1 1 1 1 1 2 2 3 2 2 2 2 2 2 3 3 3 2 2 3 3 1 1 1 1 2 2 1 1 2 2 2 2 2 2 2
1 1 1 1 1 1 1 1 1 1 1 1 1 2 2 3 2 1 1 2 3 2 3 4 2 2 2 2 3 1 1 1 1 1 1 1 1 2 2 2 2 2 2 2
1 1 1 1 1 1 0 0 1 1 1 1 1 1 2 2 2 2 2 2 2 4 3 2 2 3 3 3 2 2 1 1 1 1 1 1 1 1 2 2 2 2 2 2
1 1 1 1 1 1 0 0 1 1 1 1 1 2 2 2 2 2 3 2 2 3 3 2 3 4 5 3 2 2 2 2 2 1 1 1 1 1 2 2 2 2 2 3
1 1 1 1 1 1 0 1 0 1 1 2 2 2 2 1 2 1 1 3 4 4 2 3 4 5 5 2 2 1 1 1 2 1 1 2 1 2 2 2 2 3 3 3
1 1 1 2 2 1 1 1 0 0 0 1 1 1 1 1 2 2 1 2 3 3 2 3 4 5 4 2 2 1 1 1 1 1 1 2 2 2 2 2 2 3 3 3
1 2 2 2 2 2 1 1 1 1 0 1 1 1 1 1 1 1 1 1 2 3 2 2 2 3 2 2 2 2 2 2 2 2 2 2 2 2 2 2 3 3 3 3
1 1 1 1 1 1 1 1 1 1 1 1 1 1 1 1 0 1 1 1 1 2 2 2 2 2 2 2 2 2 2 2 2 2 2 2 2 2 2 3 2 2 2 3
Wind_Direction
272 280 267 259 251 222 216 226 234 262 271 285 326 345 357 10 11 4 358 1 0 356 354 350 347 344 343 340 341 345 348 345 334 332 341 354 355 346 337 332 320 296 240 265
271 254 256 265 257 237 234 244 247 266 279 299 336 1 352 355 357 350 351 353 353 352 349 346 340 334 334 333 334 336 334 329 330 340 355 1 356 355 354 356 356 42 11 313
263 305 312 271 243 218 217 230 225 244 261 332 344 340 334 341 357 355 351 351 347 341 335 331 330 330 324 315 314 317 320 326 335 343 354 354 354 9 13 9 23 31 14 9
276 336 250 249 49 155 203 252 255 276 313 347 331 323 339 2 3 354 352 343 337 333 331 327 326 326 324 330 329 329 334 335 336 348 354 352 6 10 8 20 27 22 19 19
239 255 266 253 224 128 190 267 291 279 307 329 331 320 333 8 4 345 336 329 325 326 327 332 332 329 338 342 343 344 346 345 344 351 358 2 0 351 351 14 16 7 7 20
231 242 252 242 33 24 99 271 336 336 306 327 346 323 296 343 344 339 341 340 337 337 338 340 337 345 353 348 347 342 340 338 340 349 350 342 337 341 355 5 358 357 11 21
237 244 260 247 257 86 167 256 306 314 299 315 291 269 295 323 335 340 341 343 345 344 343 338 340 355 358 353 346 335 339 343 353 358 351 347 2 12 13 7 8 19 20 12
212 228 249 160 131 173 218 300 7 339 326 311 299 304 313 323 332 338 345 346 348 348 343 344 350 357 356 349 342 345 353 360 359 360 357 0 14 16 19 20 27 24 17 6
203 218 192 146 174 205 176 247 298 325 321 307 300 300 313 321 328 331 339 341 343 340 337 344 356 5 356 343 345 352 6 4 360 4 7 8 17 18 20 22 25 16 9 1
248 250 232 194 188 231 266 247 296 314 305 303 294 305 318 323 326 329 333 333 332 336 341 343 353 3 353 345 351 359 2 2 1 9 12 15 18 21 23 16 10 2 360 357
247 257 267 238 219 234 245 258 311 319 301 290 299 305 305 312 317 319 323 323 327 336 340 342 350 356 353 355 359 360 358 358 359 7 12 15 18 18 12 10 3 351 347 346
238 241 229 250 240 220 223 271 291 299 304 311 292 295 307 312 321 329 329 333 341 346 347 347 353 350 353 356 357 355 351 351 353 358 5 11 13 10 15 8 8 8 359 349
239 265 252 266 307 331 279 286 284 271 270 288 295 300 311 315 324 330 334 339 338 334 333 341 349 347 351 354 357 359 347 342 346 353 1 359 359 2 357 2 6 6 5 1
231 230 256 260 267 294 297 291 294 320 312 306 313 321 324 324 327 330 328 326 327 332 338 343 345 345 348 350 354 351 341 344 348 342 346 341 342 343 344 346 350 353 356 358
245 233 227 241 269 322 341 353 356 340 342 344 342 331 322 316 316 317 320 326 331 338 343 346 344 339 344 348 349 342 340 343 347 341 339 336 336 336 339 342 344 343 347 350
225 223 210 208 217 231 239 264 276 293 308 313 314 307 301 299 305 313 322 330 335 333 333 336 333 330 337 344 343 335 333 341 347 341 337 345 351 351 347 343 342 342 340 336
192 217 218 229 237 240 239 248 260 274 290 298 303 312 321 323 323 321 324 332 326 314 321 329 323 327 336 341 338 331 332 335 342 342 339 342 343 340 336 336 338 337 330 329
212 217 210 216 227 237 250 255 262 276 280 290 307 319 317 311 305 308 316 323 324 326 331 332 324 329 334 337 333 324 324 326 329 329 332 332 330 326 325 326 327 329 330 333
209 206 204 210 213 216 227 235 250 266 280 303 309 297 291 290 293 298 312 325 320 317 325 328 334 340 333 333 339 325 326 330 333 333 327 319 329 325 321 322 321 323 329 340
190 170 169 190 200 198 208 219 214 245 273 298 301 305 305 303 302 299 301 305 299 299 313 324 330 327 323 321 337 334 334 327 321 320 321 317 319 322 325 325 329 332 337 334
192 176 174 186 202 207 203 198 196 235 273 271 251 269 283 292 297 294 297 306 310 323 330 336 344 324 317 325 341 339 325 318 315 310 310 312 317 322 329 336 334 329 327 326
196 183 190 190 190 223 231 189 187 207 254 288 287 289 299 305 306 297 279 277 302 335 343 333 323 323 335 343 344 334 326 325 324 325 326 329 328 324 325 326 322 317 316 315
203 196 186 185 192 203 336 179 187 193 218 247 263 268 270 275 281 292 303 313 318 328 338 322 322 333 342 354 351 346 344 346 342 340 334 328 321 316 315 316 312 311 312 312
178 177 182 161 134 140 233 279 270 250 239 256 253 248 252 282 300 286 282 311 326 330 331 324 333 340 351 4 355 350 346 345 341 334 330 327 321 312 306 304 306 306 307 307
179 179 173 164 175 205 222 235 268 237 264 287 283 264 238 231 252 284 304 308 320 333 331 329 337 348 359 350 345 347 346 338 326 325 323 319 311 308 305 305 306 305 306 308
186 189 199 211 212 207 196 189 209 239 254 287 308 312 307 290 272 285 296 303 314 329 335 335 340 348 350 347 347 346 340 331 332 333 321 311 306 303 301 304 304 306 305 304
181 183 189 214 228 199 188 191 200 223 232 240 275 287 297 314 313 312 317 325 335 338 336 335 341 345 344 342 341 337 335 330 323 319 317 310 307 306 308 306 305 304 303 299
Height
1476 1472 1473 1473 1472 1473 1475 1473 1474 1467 1466 1465 1465 1465 1465 1464 1463 1462 1461 1460 1459 1457 1456 1454 1453 1451 1450 1449 1447 1446 1445 1443 1442 1441 1440 1440 1439 1439 1438 1438 1438 1438 1439 1439
1476 1471 1471 1471 1469 1470 1471 1470 1469 1467 1467 1464 1464 1464 1463 1463 1462 1462 1461 1460 1458 1457 1455 1453 1452 1450 1449 1447 1446 1445 1443 1442 1441 1440 1439 1438 1437 1436 1435 1435 1435 1435 1435 1436
1474 1471 1472 1472 1467 1467 1468 1467 1467 1467 1466 1464 1464 1464 1463 1463 1462 1461 1460 1459 1457 1456 1454 1452 1451 1449 1447 1446 1445 1443 1442 1440 1439 1438 1437 1436 1435 1434 1433 1433 1433 1433 1433 1433
1477 1477 1476 1468 1463 1462 1465 1465 1465 1464 1464 1464 1465 1464 1463 1462 1461 1460 1459 1458 1456 1454 1452 1451 1449 1447 1446 1444 1443 1441 1440 1438 1437 1437 1436 1435 1433 1432 1432 1431 1431 1431 1431 1431
1477 1474 1468 1465 1463 1464 1466 1466 1464 1464 1463 1463 1463 1461 1461 1460 1460 1459 1458 1457 1455 1453 1451 1449 1448 1446 1444 1442 1441 1439 1438 1437 1436 1435 1434 1433 1432 1431 1431 1430 1429 1429 1429 1428
1475 1473 1469 1465 1464 1462 1466 1467 1463 1463 1463 1463 1462 1463 1461 1459 1458 1457 1456 1454 1453 1451 1449 1448 1446 1444 1442 1441 1439 1438 1437 1435 1434 1433 1433 1431 1430 1430 1429 1429 1428 1428 1427 1427
1474 1472 1467 1466 1463 1463 1469 1466 1462 1461 1461 1462 1462 1462 1461 1458 1457 1456 1454 1452 1451 1449 1447 1446 1445 1443 1441 1439 1438 1437 1435 1434 1433 1432 1431 1430 1429 1429 1428 1427 1427 1426 1426 1425
1471 1470 1468 1464 1463 1466 1465 1462 1461 1461 1460 1460 1460 1459 1458 1457 1455 1454 1452 1450 1449 1447 1446 1445 1443 1442 1440 1438 1437 1436 1434 1433 1432 1431 1430 1429 1428 1427 1427 1426 1426 1425 1425 1424
1467 1466 1461 1460 1461 1461 1461 1460 1460 1459 1459 1458 1457 1457 1456 1455 1453 1452 1451 1449 1447 1446 1444 1443 1442 1440 1439 1437 1436 1435 1433 1432 1431 1430 1429 1428 1427 1426 1426 1425 1425 1424 1424 1423
1463 1460 1459 1459 1459 1459 1459 1459 1458 1458 1457 1456 1455 1454 1454 1453 1451 1450 1449 1447 1446 1444 1442 1441 1440 1439 1438 1436 1435 1433 1432 1431 1430 1429 1428 1427 1426 1426 1425 1425 1424 1423 1423 1422
1461 1458 1457 1456 1457 1457 1457 1456 1456 1456 1455 1455 1454 1452 1452 1450 1449 1448 1446 1445 1444 1442 1441 1440 1439 1438 1437 1435 1434 1433 1431 1430 1430 1429 1428 1427 1426 1425 1425 1425 1424 1424 1423 1422
1456 1454 1456 1455 1454 1454 1454 1454 1454 1453 1453 1453 1452 1451 1450 1448 1447 1446 1444 1443 1442 1441 1440 1439 1438 1437 1436 1435 1433 1432 1431 1430 1429 1428 1427 1426 1425 1425 1425 1424 1424 1423 1423 1422
1451 1451 1452 1452 1452 1452 1452 1452 1451 1451 1451 1450 1449 1449 1448 1446 1445 1444 1443 1442 1441 1440 1439 1438 1436 1435 1434 1433 1432 1431 1430 1429 1428 1427 1426 1426 1425 1424 1423 1423 1423 1423 1422 1421
1449 1450 1450 1450 1450 1450 1450 1449 1449 1449 1448 1448 1447 1446 1446 1445 1444 1443 1441 1440 1439 1438 1437 1436 1435 1434 1433 1432 1431 1430 1429 1428 1427 1426 1426 1425 1424 1424 1423 1422 1421 1421 1421 1420
1446 1447 1447 1447 1447 1447 1447 1447 1447 1446 1446 1445 1445 1444 1444 1443 1442 1441 1440 1439 1438 1437 1436 1435 1434 1432 1432 1430 1429 1428 1428 1427 1426 1425 1425 1424 1424 1423 1422 1422 1421 1420 1419 1419
1443 1443 1444 1444 1444 1445 1445 1444 1444 1444 1444 1443 1443 1442 1442 1441 1440 1439 1438 1437 1436 1435 1434 1433 1432 1431 1430 1429 1428 1427 1427 1426 1425 1425 1424 1423 1423 1422 1422 1421 1420 1419 1419 1418
1440 1440 1440 1441 1441 1442 1442 1442 1442 1442 1442 1441 1441 1440 1440 1439 1438 1437 1437 1436 1435 1434 1433 1432 1431 1430 1429 1428 1428 1427 1426 1425 1425 1424 1423 1423 1422 1422 1421 1420 1419 1419 1418 1418
1437 1437 1438 1438 1439 1439 1439 1440 1440 1440 1440 1440 1439 1439 1438 1437 1436 1436 1435 1434 1433 1432 1432 1431 1430 1429 1429 1428 1427 1426 1425 1424 1424 1423 1422 1422 1421 1421 1420 1419 1419 1418 1417 1417
1434 1435 1435 1436 1437 1437 1438 1438 1438 1438 1438 1438 1437 1437 1436 1436 1435 1434 1434 1433 1432 1431 1430 1430 1429 1429 1428 1427 1426 1425 1424 1424 1423 1422 1421 1421 1421 1420 1419 1419 1418 1417 1417 1416
1432 1432 1433 1434 1435 1435 1436 1436 1436 1436 1436 1436 1436 1435 1435 1434 1434 1433 1432 1431 1430 1430 1429 1429 1428 1428 1427 1426 1425 1424 1424 1423 1422 1421 1421 1420 1420 1419 1419 1418 1417 1417 1416 1415
1430 1431 1431 1432 1433 1433 1434 1434 1434 1434 1434 1434 1434 1434 1433 1433 1432 1432 1431 1430 1430 1429 1429 1428 1427 1427 1426 1425 1424 1423 1422 1422 1421 1420 1420 1419 1419 1418 1418 1417 1416 1416 1415 1414
1429 1429 1430 1430 1431 1431 1432 1432 1432 1432 1432 1432 1432 1432 1432 1431 1431 1430 1430 1430 1429 1428 1428 1427 1426 1426 1425 1424 1423 1422 1421 1421 1420 1420 1419 1419 1418 1417 1417 1416 1415 1415 1414 1413
1428 1428 1428 1429 1429 1430 1430 1430 1431 1431 1431 1431 1431 1430 1430 1430 1430 1429 1428 1428 1428 1427 1427 1426 1425 1425 1424 1423 1422 1421 1421 1420 1419 1419 1418 1418 1417 1417 1416 1415 1414 1414 1413 1412
1427 1427 1427 1428 1428 1428 1428 1429 1429 1429 1429 1429 1429 1429 1429 1428 1428 1428 1427 1427 1427 1426 1426 1425 1424 1424 1423 1422 1421 1420 1420 1419 1419 1418 1418 1417 1416 1416 1415 1414 1413 1412 1412 1411
1426 1426 1426 1426 1426 1427 1427 1428 1428 1428 1428 1428 1428 1428 1428 1428 1427 1427 1426 1426 1426 1425 1425 1424 1423 1423 1422 1421 1420 1419 1419 1418 1418 1417 1416 1416 1415 1414 1414 1413 1412 1411 1410 1409
1424 1424 1425 1425 1425 1426 1426 1426 1426 1426 1426 1426 1427 1427 1427 1427 1426 1426 1425 1425 1425 1424 1424 1423 1422 1422 1421 1420 1419 1418 1418 1417 1416 1416 1415 1415 1414 1413 1412 1412 1411 1410 1409 1408
1423 1423 1423 1424 1424 1424 1424 1425 1425 1425 1425 1425 1425 1426 1426 1425 1425 1425 1424 1424 1424 1423 1423 1422 1421 1421 1420 1419 1418 1417 1417 1416 1415 1415 1414 1413 1413 1412 1411 1410 1409 1408 1407 1406